Simultaneous Nadir Overpasses (SNOs) Predictions

Prediction of SNOs between AURA and LANDSAT-8 Satellite Orbit:

Table of predicted SNOs for the next 14.0 days since TLE Epoch: 12/28/2024
Index Date (AURA) Time (AURA) Lat,Lon (AURA) SZA (AURA ) Date (LANDSAT-8) Time (LANDSAT-8) Lat,Lon (LANDSAT-8) SZA (LANDSAT-8 ) Distance(km) Time Diff (sec)
1 01/09/2025 13:03:10 -72.57, 166.82 85.51 01/09/2025 13:02:02 -72.57, 164.78 85.51 67.86 68
2 01/09/2025 13:52:34 72.68, -25.72 94.59 01/09/2025 13:51:26 72.63, -27.47 94.55 58.27 68
3 01/09/2025 14:41:59 -72.92, 141.46 85.17 01/09/2025 14:40:48 -72.94, 140.76 85.15 22.84 71
4 01/09/2025 15:31:23 73.03, -51.09 94.94 01/09/2025 15:30:11 73.05, -51.38 94.96 9.53 72
5 01/09/2025 16:20:45 -73.12, 116.40 84.99 01/09/2025 16:19:38 -73.09, 116.35 85.01 3.22 67
6 01/09/2025 17:10:07 73.12, -75.94 95.01 01/09/2025 17:09:03 73.10, -76.00 95.00 2.96 64
7 01/09/2025 17:59:28 -73.15, 91.65 84.96 01/09/2025 17:58:30 -73.14, 91.72 84.97 2.53 58
8 01/09/2025 18:48:50 73.15,-100.69 95.04 01/09/2025 18:47:55 73.14,-100.62 95.03 2.21 55
9 01/09/2025 19:38:10 -73.13, 67.01 84.99 01/09/2025 19:37:23 -73.14, 66.99 84.98 0.77 47
10 01/09/2025 20:27:32 73.13,-125.33 95.01 01/09/2025 20:26:48 73.14,-125.35 95.02 1.17 44
11 01/09/2025 21:16:53 -73.17, 42.27 84.96 01/09/2025 21:16:16 -73.13, 42.27 85.00 3.86 37
12 01/09/2025 22:06:15 73.17,-150.07 95.04 01/09/2025 22:05:41 73.14,-150.08 95.01 3.48 34
13 01/09/2025 22:55:35 -73.15, 17.63 84.99 01/09/2025 22:55:08 -73.18, 17.64 84.96 3.56 27
14 01/09/2025 23:44:57 73.15,-174.71 95.01 01/09/2025 23:44:34 73.13,-174.81 94.99 3.68 23
15 01/10/2025 00:34:18 -73.18, -7.12 84.97 01/10/2025 00:34:01 -73.18, -7.08 84.98 1.26 17
16 01/10/2025 01:23:40 73.18, 160.54 95.03 01/10/2025 01:23:26 73.18, 160.57 95.03 0.97 14
17 01/10/2025 02:13:00 -73.17, -31.76 85.00 01/10/2025 02:12:54 -73.17, -31.81 84.99 2.03 6
18 01/10/2025 03:02:22 73.17, 135.90 95.00 01/10/2025 03:02:19 73.18, 135.84 95.01 2.29 3
19 01/10/2025 03:51:43 -73.20, -56.50 84.97 01/10/2025 03:51:46 -73.22, -56.44 84.95 3.09 3
20 01/10/2025 04:41:05 73.20, 111.16 95.03 01/10/2025 04:41:11 73.22, 111.22 95.05 3.28 6
21 01/10/2025 05:30:26 -73.23, -81.25 84.95 01/10/2025 05:30:39 -73.22, -81.16 84.97 3.39 13
22 01/10/2025 06:19:48 73.24, 86.41 95.05 01/10/2025 06:20:04 73.22, 86.49 95.04 3.16 16
23 01/10/2025 07:09:08 -73.22,-105.89 84.98 01/10/2025 07:09:32 -73.21,-105.89 84.98 0.62 24
24 01/10/2025 07:58:30 73.22, 61.77 95.03 01/10/2025 07:58:57 73.22, 61.76 95.02 0.43 27
25 01/10/2025 08:47:50 -73.20,-130.53 85.00 01/10/2025 08:48:25 -73.21,-130.62 85.00 3.19 35
26 01/10/2025 09:37:12 73.20, 37.13 95.00 01/10/2025 09:37:50 73.21, 37.03 95.01 3.35 38
27 01/10/2025 10:26:33 -73.23,-155.27 84.98 01/10/2025 10:27:17 -73.26,-155.25 84.96 2.52 44
28 01/10/2025 11:15:55 73.24, 12.38 95.02 01/10/2025 11:16:42 73.26, 12.41 95.05 2.73 47
29 01/10/2025 12:05:16 -73.27, 179.98 84.95 01/10/2025 12:06:10 -73.25,-179.97 84.97 2.57 54
30 01/10/2025 12:54:38 73.27, -12.37 95.05 01/10/2025 12:55:35 73.26, -12.32 95.03 2.38 57
31 01/10/2025 13:43:58 -73.25, 155.34 84.98 01/10/2025 13:45:03 -73.25, 155.30 84.99 1.45 65
32 01/10/2025 14:33:20 73.25, -37.01 95.02 01/10/2025 14:34:28 73.25, -37.05 95.02 1.43 68
33 01/10/2025 15:22:43 -73.39, 130.37 84.85 01/10/2025 15:23:54 -73.35, 130.78 84.90 14.03 71
34 01/10/2025 16:12:07 73.50, -62.20 95.26 01/10/2025 16:13:17 73.46, -61.34 95.21 27.43 70
35 01/10/2025 17:01:32 -73.74, 104.95 84.51 01/10/2025 17:02:40 -73.71, 106.83 84.54 58.70 68
36 01/10/2025 17:50:57 73.90, -87.75 95.66 01/10/2025 17:52:03 73.82, -85.29 95.57 76.72 66



Historial Predications of SNOs between AURA and LANDSAT-8
